GW3861 Weather Reports


time (UTC)temp
C
wind
direction
speed
KPH
gust
KPH
rain 1hr
cm
rain 24hr
cm
rain mn
cm
humidity
%
barometer
mb
20260504044542 14 0 0.0 4.8 0.00 0.00 0.00 53 1014.8
20260504043046 13 0 1.6 8.0 0.00 0.00 0.00 56 1014.7
20260504041545 13 97 0.0 6.4 0.00 0.00 0.00 56 1014.5
20260504040045 13 0 0.0 4.8 0.00 0.00 0.00 57 1014.9
20260504034552 13 0 0.0 4.8 0.00 0.00 0.00 58 1014.9
20260504033055 13 118 0.0 1.6 0.00 0.00 0.00 59 1015.1
20260504031600 12 0 0.0 1.6 0.00 0.00 0.00 60 1015.3
20260504030109 12 0 0.0 1.6 0.00 0.00 0.00 59 1015.4
20260504024548 13 0 0.0 1.6 0.00 0.00 0.00 57 1015.5
20260504023041 13 0 0.0 1.6 0.00 0.00 0.00 57 1015.4
20260504021544 13 0 0.0 3.2 0.00 0.00 0.00 58 1015.5
20260504020050 14 0 0.0 1.6 0.00 0.00 0.00 54 1015.3
20260504014545 15 0 0.0 3.2 0.00 0.00 0.00 47 1015.0
20260504013043 16 0 0.0 3.2 0.00 0.00 0.00 43 1014.7
20260504011541 16 0 0.0 6.4 0.00 0.00 0.00 42 1014.6
20260504010047 17 0 0.0 6.4 0.00 0.00 0.00 41 1014.8
20260504004546 17 0 0.0 4.8 0.00 0.00 0.00 41 1014.6
20260504003046 17 219 0.0 4.8 0.00 0.00 0.00 41 1014.7
20260504001543 18 226 3.2 9.7 0.00 0.00 0.00 39 1014.7
20260503234546 18 360 1.6 9.7 0.00 0.00 0.00 37 1015.1
20260503233050 19 360 4.8 9.7 0.00 0.00 0.00 36 1015.3
20260503231549 19 360 3.2 8.0 0.00 0.00 0.00 36 1015.4
20260503230044 19 360 3.2 8.0 0.00 0.00 0.00 35 1015.6
20260503224541 19 360 3.2 11.3 0.00 0.00 0.00 36 1015.7
20260503223040 19 360 4.8 17.7 0.00 0.00 0.00 33 1015.8
20260503221547 19 360 4.8 14.5 0.00 0.00 0.00 32 1015.9
20260503220046 20 360 4.8 19.3 0.00 0.00 0.00 33 1016.1
20260503214543 20 308 6.4 19.3 0.00 0.00 0.00 35 1016.4
20260503213043 20 176 3.2 9.7 0.00 0.00 0.00 33 1016.5
20260503211552 20 299 6.4 17.7 0.00 0.00 0.00 34 1016.9
20260503210047 20 94 6.4 14.5 0.00 0.00 0.00 32 1017.2
20260503204546 20 0 1.6 11.3 0.00 0.00 0.00 36 1017.4
20260503203045 20 252 3.2 12.9 0.00 0.00 0.00 33 1017.7
20260503201546 19 253 3.2 16.1 0.00 0.00 0.00 33 1018.0
20260503200040 18 54 4.8 14.5 0.00 0.00 0.00 34 1018.4
20260503194547 19 288 9.7 20.9 0.00 0.00 0.00 34 1018.9
20260503193045 19 300 3.2 12.9 0.00 0.00 0.00 33 1019.0
20260503191543 18 360 3.2 12.9 0.00 0.00 0.00 36 1019.2
20260503190043 18 360 1.6 12.9 0.00 0.00 0.00 36 1019.4
20260503184605 18 360 3.2 9.7 0.00 0.00 0.00 34 1019.6
20260503183051 17 360 1.6 9.7 0.00 0.00 0.00 35 1019.7
20260503181554 17 360 6.4 16.1 0.00 0.00 0.00 35 1019.9
20260503180044 17 360 1.6 4.8 0.00 0.00 0.00 37 1020.1
20260503174543 16 360 3.2 12.9 0.00 0.00 0.00 37 1020.3
20260503173045 16 360 1.6 9.7 0.00 0.00 0.00 39 1020.4
20260503171609 16 360 6.4 16.1 0.00 0.00 0.00 44 1020.7
20260503081546 5 0 0.0 0.0 0.00 0.00 0.00 93 1019.9
20260503071603 6 0 0.0 0.0 0.00 0.00 0.00 92 1019.8